Snowfall_Accumulation
0.0 0.0 0.0 0.0 0.0 0.0 0.0 0.0 0.0 0.0 0.0 0.0 0.0 0.0 0.0 0.0 0.0 0.0 0.0 0.0 0.0 0.0 0.0 0.0 0.0 0.0 0.0 0.0 0.0 0.0 0.0 0.0 0.0 0.0 0.0 0.0 0.0 0.0 0.0 0.0 0.0 0.0 0.0
0.0 0.0 0.0 0.0 0.0 0.0 0.0 0.0 0.0 0.0 0.0 0.0 0.0 0.0 0.0 0.0 0.0 0.0 0.0 0.0 0.0 0.0 0.0 0.0 0.0 0.0 0.0 0.0 0.0 0.0 0.0 0.0 0.0 0.0 0.0 0.0 0.0 0.0 0.0 0.0 0.0 0.0 0.0
0.0 0.0 0.0 0.0 0.0 0.0 0.0 0.0 0.0 0.0 0.0 0.0 0.0 0.0 0.0 0.0 0.0 0.0 0.0 0.0 0.0 0.0 0.0 0.0 0.0 0.0 0.0 0.0 0.0 0.0 0.0 0.0 0.0 0.0 0.0 0.0 0.0 0.0 0.0 0.0 0.0 0.0 0.0
0.0 0.0 0.0 0.0 0.0 0.0 0.0 0.0 0.0 0.0 0.0 0.0 0.0 0.0 0.0 0.0 0.0 0.0 0.0 0.0 0.0 0.0 0.0 0.0 0.0 0.0 0.0 0.0 0.0 0.0 0.0 0.0 0.0 0.0 0.0 0.0 0.0 0.0 0.0 0.0 0.0 0.0 0.0
0.0 0.0 0.0 0.0 0.0 0.0 0.0 0.0 0.0 0.0 0.0 0.0 0.0 0.0 0.0 0.0 0.0 0.0 0.0 0.0 0.0 0.0 0.0 0.0 0.0 0.0 0.0 0.0 0.0 0.0 0.0 0.0 0.0 0.0 0.0 0.0 0.0 0.0 0.0 0.0 0.0 0.0 0.0
0.0 0.0 0.0 0.0 0.0 0.0 0.0 0.0 0.0 0.0 0.0 0.0 0.0 0.0 0.0 0.0 0.0 0.0 0.0 0.0 0.0 0.0 0.0 0.0 0.0 0.0 0.0 0.0 0.0 0.0 0.0 0.0 0.0 0.0 0.0 0.0 0.0 0.0 0.0 0.0 0.0 0.0 0.0
0.0 0.0 0.0 0.0 0.0 0.0 0.0 0.0 0.0 0.0 0.0 0.0 0.0 0.0 0.0 0.0 0.0 0.0 0.0 0.0 0.0 0.0 0.0 0.0 0.0 0.0 0.0 0.0 0.0 0.0 0.0 0.0 0.0 0.0 0.0 0.0 0.0 0.0 0.0 0.0 0.0 0.7 0.6
0.0 0.0 0.0 0.0 0.0 0.0 0.0 0.0 0.0 0.0 0.0 0.0 0.0 0.0 0.0 0.0 0.0 0.0 0.0 0.0 0.0 0.0 0.0 0.0 0.0 0.0 0.0 0.0 0.0 0.0 0.0 0.0 0.0 0.0 0.0 0.0 0.0 0.0 0.0 0.0 0.0 0.7 0.0
0.0 0.0 0.0 0.0 0.0 0.0 0.0 0.0 0.0 0.0 0.0 0.0 0.0 0.0 0.0 0.0 0.0 0.0 0.0 0.0 0.0 0.0 0.0 0.0 0.0 0.0 0.0 0.0 0.0 0.0 0.0 0.0 0.0 0.0 0.7 0.3 0.1 0.0 1.2 0.6 0.6 1.2 1.3
0.0 0.0 0.0 0.0 0.0 0.0 0.0 0.0 0.0 0.0 0.0 0.0 0.0 0.0 0.0 0.0 0.0 0.0 0.0 0.0 0.0 0.0 0.0 0.0 0.0 0.0 0.0 0.0 0.0 0.0 0.0 0.0 0.9 1.0 0.6 0.2 1.2 0.9 0.8 0.9 0.8 0.9 0.9
0.0 0.0 0.0 0.0 0.0 0.0 0.0 0.0 0.0 0.0 0.0 0.0 0.0 0.0 0.0 0.0 0.0 0.0 0.0 0.0 0.0 0.0 0.0 0.0 0.0 0.0 0.5 0.2 0.0 0.0 0.0 1.0 0.9 0.4 0.2 1.0 0.8 1.0 0.9 0.4 0.8 1.1 1.0
0.0 0.0 0.0 0.0 0.0 0.0 0.0 0.0 0.0 0.0 0.0 0.0 0.0 0.0 0.0 0.0 0.0 0.0 0.0 0.0 0.0 0.0 0.0 0.0 0.8 0.8 0.4 0.1 1.2 1.2 1.1 0.8 1.2 1.4 1.2 1.6 6.6 4.0 5.0 6.2 6.8 7.2 8.4
0.0 0.0 0.0 0.0 0.0 0.0 0.0 0.0 0.0 0.0 0.0 0.0 0.0 0.0 0.0 0.0 0.0 0.0 0.0 0.0 0.0 0.0 1.1 1.0 0.8 0.4 1.7 1.7 1.6 1.2 1.3 2.1 2.0 5.1 12.7 13.9 16.5 15.4 13.6 11.5 9.6 8.7 8.2
0.0 0.0 0.0 0.0 0.0 0.0 0.0 0.0 0.0 0.0 0.0 0.0 0.0 0.0 0.0 0.0 0.0 0.0 0.0 0.0 1.2 1.1 0.8 0.4 1.5 1.2 1.0 4.3 6.4 3.2 5.9 13.9 15.2 17.9 18.1 18.7 15.5 13.5 12.4 10.9 8.9 8.7 7.7
0.0 0.0 0.0 0.0 0.0 0.0 0.1 0.1 0.1 0.1 0.1 0.0 0.1 0.0 0.0 0.1 0.1 1.6 1.1 2.3 2.2 4.0 3.5 9.7 15.1 10.5 13.6 15.1 17.1 17.0 16.8 17.0 17.2 16.3 15.4 14.6 13.0 11.4 9.7 7.2 5.7 4.4 3.4
0.0 0.0 0.0 0.0 0.0 0.0 0.0 0.1 0.1 0.2 0.2 0.5 0.7 1.2 6.4 3.2 3.3 6.2 6.7 11.7 12.3 13.0 14.1 16.3 17.2 16.9 16.2 15.6 15.3 14.2 12.3 10.8 9.6 8.1 7.1 5.9 5.0 3.9 2.7 1.7 1.0 0.8 0.6
0.1 0.0 0.0 1.8 0.6 3.0 2.8 3.1 1.6 1.8 1.7 3.7 4.4 5.8 8.0 10.1 9.5 9.1 9.0 9.8 10.0 8.3 11.2 10.7 12.7 12.1 11.1 9.5 8.6 7.5 6.9 5.8 3.6 3.5 2.7 2.1 0.6 0.4 0.4 0.1 0.1 0.0 0.0
2.2 2.6 2.4 3.2 3.6 4.8 6.9 7.7 7.8 8.7 8.7 12.1 16.0 14.2 13.1 11.8 11.6 11.0 9.9 8.3 8.8 7.0 6.5 6.2 6.7 5.7 4.8 4.1 3.7 3.2 2.7 1.8 1.1 0.4 0.2 0.2 0.1 0.1 0.0 0.0 0.0 0.0 0.0
5.5 7.1 8.0 7.3 9.0 10.1 10.2 10.7 10.8 10.6 10.9 11.5 10.5 9.5 9.4 7.7 6.7 6.0 4.8 5.1 5.2 5.1 4.5 4.2 3.8 3.4 2.9 2.2 1.7 1.0 0.5 0.3 0.0 0.2 0.1 0.1 0.1 0.2 0.1 0.1 0.0 0.0 0.0
4.1 5.6 6.1 6.9 7.5 7.7 7.7 5.9 6.9 6.7 6.3 6.0 5.6 6.8 6.0 3.5 4.4 4.6 4.0 3.9 3.6 3.5 3.0 2.4 2.1 1.6 0.4 0.2 0.1 0.2 0.2 0.1 0.1 0.0 0.0 0.1 0.1 0.1 0.2 0.1 0.1 0.1 0.0
2.1 2.5 3.0 3.2 3.7 4.1 4.2 4.2 4.2 3.8 4.7 4.6 5.4 5.1 3.9 2.6 3.4 3.1 2.8 2.4 1.9 1.6 0.8 0.1 0.0 0.1 0.0 0.0 0.0 0.1 0.0 0.0 0.0 0.0 0.0 0.1 0.1 0.2 0.0 0.1 0.2 0.1 0.1
0.7 1.0 1.1 1.4 1.7 1.7 1.8 1.8 1.8 1.8 1.8 1.7 2.0 1.6 1.1 0.9 1.0 0.5 0.4 0.4 0.2 0.0 0.0 0.0 0.0 0.0 0.0 0.0 0.0 0.0 0.0 0.0 0.0 0.1 0.0 0.0 0.1 0.1 0.1 0.0 0.1 0.1 0.2
0.2 0.3 0.4 0.7 0.6 0.7 0.7 0.7 0.7 0.7 0.6 0.9 0.7 0.4 0.2 0.1 0.0 0.1 0.1 0.1 0.0 0.0 0.0 0.0 0.0 0.0 0.0 0.0 0.0 0.0 0.1 0.1 0.1 0.1 0.1 0.2 0.2 0.3 0.1 0.3 0.2 0.3 0.2
0.0 0.0 0.1 0.1 0.1 0.2 0.3 0.3 0.1 0.0 0.0 0.0 0.0 0.0 0.1 0.0 0.1 0.0 0.1 0.0 0.0 0.0 0.0 0.0 0.0 0.0 0.0 0.0 0.0 0.0 0.0 0.0 0.0 0.0 0.0 0.3 0.3 0.2 0.2 0.3 0.2 0.2 0.2
0.0 0.0 0.0 0.0 0.0 0.0 0.0 0.0 0.0 0.0 0.0 0.0 0.0 0.0 0.0 0.0 0.0 0.1 0.0 0.0 0.0 0.0 0.0 0.0 0.0 0.0 0.0 0.0 0.0 0.0 0.0 0.0 0.0 0.0 0.0 0.1 0.3 0.2 0.2 0.2 0.3 0.4 0.1
0.0 0.0 0.0 0.0 0.0 0.0 0.0 0.0 0.0 0.0 0.0 0.0 0.1 0.0 0.0 0.0 0.0 0.0 0.0 0.0 0.0 0.0 0.0 0.0 0.0 0.0 0.0 0.0 0.0 0.0 0.0 0.0 0.0 0.0 0.0 0.1 0.2 0.2 0.3 0.4 0.2 0.2 0.3